Location: Newark
(52.2090°N, 4.1550°W)
Time: 10:45:36
(UTC+00:00)

Transit 2A - Pass Details

Date: 27 October 2019
Orbit: 601 x 957 km, 66.7° (Epoch: 12 November)

Event Time Altitude Azimuth Distance (km) Brightness Sun altitude
Rises 18:03:57 0° 207° (SSW) 3,291 9.8 -10.7°
Reaches altitude 10° 18:06:29 10° 204° (SSW) 2,306 8.9 -11.0°
Maximum altitude 18:11:40 64° 124° (SE) 789 5.9 -11.8°
Drops below altitude 10° 18:16:22 10° 44° (NE) 2,103 7.8 -12.5°
Enters shadow 18:16:23 10° 44° (NE) 2,106 7.8 -12.6°
